CDT,Max TemperatureF,Mean TemperatureF,Min TemperatureF,Max Dew PointF,MeanDew PointF,Min DewpointF,Max Humidity, Mean Humidity, Min Humidity, Max Sea Level PressureIn, Mean Sea Level PressureIn, Min Sea Level PressureIn, Max VisibilityMiles, Mean VisibilityMiles, Min VisibilityMiles, Max Wind SpeedMPH, Mean Wind SpeedMPH, Max Gust SpeedMPH,PrecipitationIn, CloudCover, Events, WindDirDegrees
2012-10-1,70,54,38,49,43,37,92,65,37,29.95,29.90,29.84,10,10,10,12,5,20,0.00,1,,219
2012-10-2,67,52,37,47,37,23,100,60,20,30.01,29.96,29.92,10,7,0,10,1,14,0.00,0,Fog,115
2012-10-3,71,53,35,50,42,34,100,66,31,30.02,29.98,29.94,10,5,0,10,2,15,0.00,0,Fog,211
2012-10-4,63,51,38,47,38,26,96,68,40,29.99,29.92,29.84,10,10,7,30,13,39,0.00,2,,232
2012-10-5,41,38,35,28,25,24,75,65,54,30.01,29.98,29.95,10,10,10,28,18,38,T,8,,263
2012-10-6,41,36,31,31,28,21,89,67,45,30.22,30.08,29.94,10,8,2,16,7,22,T,8,Snow,300
2012-10-7,48,35,22,26,20,15,88,58,28,30.19,30.10,29.99,10,10,10,21,8,26,0.00,2,,240
2012-10-8,54,44,33,37,26,16,56,49,42,29.98,29.84,29.69,10,10,10,25,11,38,T,4,Rain,196
2012-10-9,50,42,34,45,37,31,93,80,66,29.82,29.73,29.68,10,8,2,20,9,26,0.29,7,Rain,247
2012-10-10,43,36,29,30,25,18,89,64,39,30.05,29.94,29.79,10,10,10,22,10,31,0.01,5,,272
2012-10-11,45,33,21,34,27,20,89,65,41,30.33,30.03,29.87,10,10,10,20,6,26,T,6,,306
2012-10-12,47,32,16,28,21,13,96,64,31,30.49,30.39,30.22,10,9,2,15,5,23,0.00,0,,217
2012-10-13,45,40,35,45,40,18,100,74,47,30.20,29.88,29.73,10,4,2,16,4,24,0.27,8,Rain,178
2012-10-14,44,42,39,44,41,37,100,93,86,29.80,29.72,29.64,10,8,2,15,8,24,0.12,8,Rain,6
2012-10-15,54,45,35,37,33,30,89,65,41,29.95,29.89,29.76,10,10,10,14,4,20,0.00,4,,320
2012-10-16,58,49,40,44,41,35,93,76,59,29.88,29.66,29.49,10,10,7,15,6,23,0.01,6,Rain,146
2012-10-17,68,54,40,54,47,39,100,74,48,29.48,29.36,29.25,10,5,0,16,6,24,0.35,6,Fog-Rain,127
2012-10-18,48,45,41,47,43,39,100,91,82,29.46,29.28,29.14,10,7,1,12,5,15,0.31,8,Rain,174
2012-10-19,49,44,38,43,39,37,100,88,76,29.69,29.57,29.43,10,10,2,12,5,17,0.04,7,Rain,45
2012-10-20,52,42,31,41,37,30,100,80,59,29.90,29.78,29.67,10,7,0,8,2,13,T,5,Fog-Rain,320
2012-10-21,59,44,28,41,32,27,100,76,51,30.01,29.94,29.86,10,4,0,13,3,16,0.00,2,Fog,150
2012-10-22,63,52,41,45,43,41,96,74,52,30.06,30.01,29.98,10,10,5,12,5,16,0.00,3,,61
2012-10-23,58,53,47,57,51,44,100,90,80,30.00,29.90,29.86,10,4,0,16,8,21,0.01,8,Fog-Rain,113
2012-10-24,67,63,58,63,60,57,100,94,87,29.90,29.81,29.70,9,4,0,17,5,23,0.03,8,Fog,162
2012-10-25,64,48,32,61,47,28,100,91,82,29.96,29.65,29.52,10,7,1,24,11,33,2.03,8,Rain,300
2012-10-26,38,34,29,27,24,19,85,69,52,30.35,30.24,30.01,10,10,10,22,11,28,0.00,6,,262
2012-10-27,40,31,22,21,18,13,81,58,34,30.39,30.35,30.32,10,10,9,15,4,21,0.00,3,,277
2012-10-28,44,31,18,23,18,15,92,63,33,30.44,30.39,30.34,10,9,2,8,1,13,0.00,0,,215
2012-10-29,46,32,18,27,21,16,92,65,37,30.44,30.37,30.27,10,10,6,9,1,14,0.00,0,,4
2012-10-30,39,34,29,27,22,19,85,65,44,30.25,30.11,29.98,10,10,10,18,10,30,0.00,1,,5
2012-10-31,42,35,27,27,21,12,78,56,33,29.95,29.91,29.87,10,10,10,15,8,23,0.00,3,,337